QPF
0.00 0.00 0.00 0.00 0.00 0.00 0.00 0.00 0.00 0.00 0.00 0.00 0.00 0.00 0.00 0.00 0.00 0.00 0.00 0.00 0.00 0.00 0.00 0.00 0.00 0.00 0.00 0.00 0.00 0.00 0.00 0.00 0.00 0.00 0.00 0.00 0.00 0.00 0.00 0.00 0.00 0.00 0.00
0.00 0.00 0.00 0.00 0.00 0.00 0.00 0.00 0.00 0.00 0.00 0.00 0.00 0.00 0.00 0.00 0.00 0.00 0.00 0.00 0.00 0.00 0.00 0.00 0.00 0.00 0.00 0.00 0.00 0.00 0.00 0.00 0.00 0.00 0.00 0.00 0.00 0.00 0.00 0.00 0.00 0.00 0.00
0.00 0.00 0.00 0.00 0.00 0.00 0.00 0.00 0.00 0.00 0.00 0.00 0.00 0.00 0.00 0.00 0.00 0.00 0.00 0.00 0.00 0.00 0.00 0.00 0.00 0.00 0.00 0.00 0.00 0.00 0.00 0.00 0.00 0.00 0.00 0.00 0.00 0.00 0.00 0.00 0.00 0.00 0.00
0.00 0.00 0.00 0.00 0.00 0.00 0.00 0.00 0.00 0.00 0.00 0.00 0.00 0.00 0.00 0.00 0.00 0.00 0.00 0.00 0.00 0.00 0.00 0.00 0.00 0.00 0.00 0.00 0.00 0.00 0.00 0.00 0.00 0.00 0.00 0.00 0.00 0.00 0.00 0.00 0.00 0.00 0.00
0.00 0.00 0.00 0.00 0.00 0.00 0.00 0.00 0.00 0.00 0.00 0.00 0.00 0.00 0.00 0.00 0.00 0.00 0.00 0.00 0.00 0.00 0.00 0.00 0.00 0.00 0.00 0.00 0.00 0.00 0.00 0.00 0.00 0.01 0.01 0.00 0.00 0.00 0.00 0.00 0.00 0.00 0.00
0.00 0.00 0.00 0.00 0.00 0.00 0.00 0.00 0.00 0.00 0.00 0.00 0.00 0.00 0.00 0.00 0.00 0.00 0.00 0.00 0.00 0.00 0.00 0.00 0.00 0.00 0.00 0.00 0.00 0.00 0.00 0.00 0.01 0.01 0.01 0.00 0.00 0.00 0.00 0.00 0.00 0.00 0.00
0.00 0.00 0.00 0.00 0.00 0.00 0.00 0.00 0.00 0.00 0.00 0.00 0.00 0.00 0.00 0.00 0.00 0.00 0.00 0.00 0.00 0.00 0.00 0.00 0.00 0.00 0.00 0.00 0.00 0.00 0.00 0.00 0.00 0.00 0.01 0.00 0.00 0.00 0.00 0.00 0.00 0.00 0.00
0.00 0.00 0.00 0.00 0.00 0.00 0.00 0.00 0.00 0.00 0.00 0.00 0.00 0.00 0.00 0.00 0.00 0.00 0.00 0.00 0.00 0.00 0.00 0.00 0.00 0.00 0.00 0.00 0.00 0.00 0.00 0.00 0.00 0.00 0.00 0.00 0.00 0.00 0.00 0.01 0.01 0.02 0.01
0.00 0.00 0.00 0.00 0.00 0.00 0.00 0.00 0.00 0.00 0.00 0.00 0.00 0.00 0.00 0.00 0.00 0.00 0.00 0.00 0.00 0.00 0.00 0.00 0.00 0.00 0.00 0.00 0.01 0.02 0.01 0.00 0.00 0.00 0.00 0.00 0.00 0.00 0.00 0.01 0.02 0.01 0.01
0.00 0.00 0.00 0.00 0.00 0.00 0.00 0.00 0.00 0.00 0.00 0.00 0.00 0.00 0.00 0.00 0.00 0.00 0.00 0.00 0.00 0.00 0.00 0.00 0.00 0.00 0.00 0.00 0.01 0.02 0.03 0.01 0.01 0.01 0.01 0.01 0.00 0.00 0.00 0.00 0.00 0.01 0.00
0.00 0.00 0.00 0.00 0.00 0.00 0.00 0.00 0.00 0.00 0.00 0.00 0.00 0.00 0.00 0.00 0.00 0.00 0.00 0.00 0.00 0.00 0.00 0.00 0.00 0.00 0.01 0.01 0.02 0.04 0.04 0.02 0.04 0.05 0.05 0.03 0.02 0.01 0.00 0.00 0.00 0.00 0.01
0.00 0.00 0.00 0.00 0.00 0.00 0.00 0.00 0.00 0.00 0.00 0.00 0.00 0.00 0.00 0.00 0.00 0.00 0.00 0.00 0.00 0.00 0.00 0.00 0.00 0.01 0.01 0.00 0.00 0.00 0.00 0.00 0.00 0.00 0.00 0.00 0.00 0.00 0.00 0.00 0.00 0.00 0.00
0.00 0.00 0.00 0.00 0.00 0.00 0.00 0.00 0.00 0.00 0.00 0.00 0.00 0.00 0.00 0.00 0.00 0.00 0.00 0.00 0.00 0.00 0.00 0.00 0.00 0.00 0.00 0.00 0.00 0.00 0.00 0.00 0.00 0.00 0.00 0.00 0.00 0.00 0.00 0.00 0.00 0.00 0.00
0.00 0.00 0.00 0.00 0.00 0.00 0.00 0.00 0.00 0.00 0.00 0.00 0.00 0.00 0.00 0.00 0.00 0.00 0.00 0.00 0.00 0.01 0.01 0.00 0.00 0.00 0.00 0.00 0.00 0.00 0.00 0.00 0.00 0.00 0.00 0.00 0.00 0.00 0.00 0.00 0.00 0.00 0.00
0.00 0.00 0.00 0.00 0.00 0.00 0.00 0.00 0.00 0.00 0.00 0.00 0.00 0.00 0.00 0.00 0.00 0.00 0.00 0.00 0.01 0.02 0.00 0.00 0.00 0.00 0.00 0.00 0.00 0.00 0.00 0.00 0.00 0.00 0.00 0.00 0.00 0.00 0.00 0.00 0.00 0.01 0.01
0.00 0.00 0.00 0.00 0.00 0.00 0.00 0.00 0.00 0.00 0.00 0.00 0.00 0.00 0.00 0.00 0.00 0.00 0.00 0.00 0.02 0.00 0.00 0.00 0.00 0.00 0.00 0.00 0.00 0.00 0.00 0.00 0.00 0.00 0.00 0.00 0.00 0.00 0.00 0.00 0.00 0.01 0.01
0.00 0.00 0.00 0.00 0.00 0.00 0.00 0.00 0.00 0.00 0.00 0.00 0.00 0.00 0.00 0.00 0.00 0.00 0.00 0.00 0.01 0.00 0.00 0.00 0.00 0.00 0.00 0.00 0.00 0.00 0.00 0.00 0.00 0.00 0.00 0.00 0.00 0.00 0.00 0.00 0.00 0.01 0.01
0.00 0.00 0.00 0.00 0.00 0.00 0.00 0.00 0.00 0.00 0.00 0.00 0.00 0.00 0.00 0.00 0.00 0.00 0.00 0.00 0.00 0.00 0.00 0.00 0.00 0.00 0.00 0.00 0.00 0.00 0.00 0.00 0.00 0.00 0.00 0.00 0.00 0.01 0.01 0.00 0.00 0.01 0.01
0.00 0.00 0.00 0.00 0.00 0.00 0.00 0.00 0.00 0.00 0.00 0.00 0.00 0.00 0.00 0.00 0.00 0.00 0.00 0.00 0.00 0.00 0.00 0.00 0.00 0.00 0.00 0.00 0.00 0.00 0.00 0.00 0.00 0.00 0.00 0.00 0.01 0.01 0.01 0.00 0.00 0.00 0.01
0.00 0.00 0.00 0.00 0.00 0.00 0.00 0.00 0.00 0.00 0.00 0.00 0.00 0.00 0.00 0.00 0.00 0.00 0.00 0.00 0.00 0.00 0.00 0.00 0.00 0.00 0.00 0.00 0.00 0.00 0.00 0.00 0.00 0.00 0.00 0.00 0.01 0.01 0.01 0.01 0.01 0.01 0.00
0.00 0.00 0.00 0.00 0.00 0.00 0.00 0.00 0.00 0.00 0.00 0.00 0.00 0.00 0.00 0.00 0.00 0.00 0.00 0.00 0.00 0.00 0.00 0.00 0.00 0.00 0.00 0.00 0.00 0.00 0.00 0.00 0.00 0.00 0.00 0.00 0.01 0.01 0.00 0.01 0.01 0.01 0.01
0.00 0.00 0.00 0.00 0.00 0.00 0.00 0.00 0.00 0.00 0.00 0.00 0.00 0.00 0.00 0.00 0.00 0.00 0.00 0.00 0.00 0.00 0.00 0.00 0.00 0.00 0.00 0.00 0.00 0.00 0.00 0.00 0.00 0.00 0.00 0.00 0.00 0.00 0.00 0.00 0.00 0.00 0.00
0.00 0.00 0.00 0.00 0.00 0.00 0.00 0.00 0.00 0.00 0.00 0.00 0.00 0.00 0.00 0.00 0.00 0.00 0.00 0.00 0.00 0.00 0.00 0.00 0.00 0.00 0.00 0.00 0.00 0.00 0.00 0.00 0.01 0.01 0.01 0.01 0.01 0.00 0.00 0.00 0.01 0.00 0.00
0.00 0.00 0.00 0.00 0.00 0.00 0.00 0.00 0.00 0.00 0.00 0.00 0.00 0.00 0.00 0.00 0.00 0.00 0.00 0.00 0.00 0.00 0.00 0.00 0.00 0.00 0.00 0.00 0.00 0.00 0.00 0.00 0.01 0.01 0.01 0.01 0.00 0.00 0.00 0.00 0.00 0.00 0.00
0.00 0.00 0.00 0.00 0.00 0.00 0.00 0.00 0.00 0.00 0.00 0.00 0.00 0.00 0.00 0.00 0.00 0.00 0.00 0.00 0.00 0.00 0.00 0.00 0.00 0.00 0.00 0.00 0.00 0.00 0.00 0.00 0.01 0.01 0.01 0.00 0.00 0.00 0.00 0.00 0.00 0.00 0.00
0.00 0.00 0.00 0.00 0.00 0.00 0.00 0.00 0.00 0.00 0.00 0.00 0.00 0.00 0.00 0.00 0.00 0.00 0.00 0.00 0.00 0.00 0.00 0.00 0.00 0.00 0.00 0.00 0.00 0.00 0.00 0.00 0.02 0.02 0.00 0.00 0.00 0.00 0.00 0.00 0.00 0.00 0.00
MSLP
1029.23 1029.63 1030.12 1030.38 1030.57 1031.08 1031.40 1031.59 1031.65 1031.91 1032.09 1032.14 1032.15 1032.11 1032.12 1032.08 1032.06 1031.83 1031.48 1031.37 1031.15 1030.97 1030.62 1030.34 1030.00 1029.68 1029.36 1028.98 1028.51 1028.01 1027.56 1027.04 1025.70 1023.86 1023.80 1023.24 1022.55 1022.05 1021.51 1020.90 1020.38 1019.68 1019.02
1029.12 1029.60 1029.89 1030.20 1030.83 1031.04 1031.41 1031.66 1031.96 1031.86 1032.12 1032.12 1032.26 1032.24 1032.24 1032.13 1032.05 1031.84 1031.56 1031.33 1031.07 1030.79 1030.53 1030.31 1030.03 1029.70 1029.44 1029.00 1028.50 1027.92 1027.41 1026.95 1026.15 1024.44 1023.49 1023.16 1022.68 1022.03 1021.28 1020.66 1019.96 1019.36 1018.72
1028.69 1029.32 1029.87 1030.05 1030.39 1030.55 1031.04 1031.48 1031.75 1032.07 1031.95 1032.22 1032.33 1032.35 1032.28 1032.32 1032.08 1031.74 1031.57 1031.34 1031.07 1030.83 1030.66 1030.50 1030.15 1029.88 1029.53 1029.14 1028.70 1028.06 1027.44 1026.72 1026.05 1024.98 1023.08 1023.05 1022.44 1021.99 1021.01 1020.26 1019.37 1018.73 1018.15
1028.55 1028.98 1029.29 1029.59 1030.09 1030.31 1030.63 1031.19 1031.50 1031.95 1031.88 1032.13 1032.30 1032.41 1032.37 1032.35 1032.04 1031.78 1031.60 1031.22 1030.96 1030.77 1030.59 1030.40 1030.13 1029.86 1029.60 1029.28 1028.80 1028.20 1027.44 1026.59 1025.96 1025.05 1023.71 1022.54 1022.07 1021.55 1020.94 1019.87 1018.63 1018.12 1017.35
1027.70 1028.27 1028.70 1029.19 1029.67 1030.33 1030.63 1031.39 1031.69 1031.86 1032.06 1032.33 1032.38 1032.40 1032.28 1032.17 1031.90 1031.74 1031.32 1030.96 1030.72 1030.43 1030.25 1030.10 1029.88 1029.82 1029.81 1029.49 1028.69 1027.96 1027.46 1026.72 1026.04 1025.12 1023.83 1022.76 1021.87 1021.36 1020.85 1020.27 1019.30 1018.44 1017.55
1026.87 1027.65 1028.33 1028.99 1029.66 1030.12 1030.71 1031.27 1031.66 1032.03 1032.26 1032.36 1032.21 1032.18 1032.13 1032.02 1032.03 1031.63 1031.24 1030.89 1030.60 1030.29 1029.97 1029.77 1029.60 1029.34 1028.89 1028.76 1028.36 1027.79 1027.29 1026.47 1025.74 1025.07 1023.95 1022.85 1021.91 1021.53 1021.08 1020.44 1019.76 1018.93 1017.23
1026.62 1027.32 1028.11 1028.76 1029.33 1030.10 1030.57 1031.06 1031.39 1031.63 1031.91 1032.06 1031.91 1031.95 1031.91 1031.78 1031.79 1031.41 1031.15 1030.81 1030.35 1030.08 1029.83 1029.41 1028.97 1028.70 1028.53 1027.99 1027.51 1026.94 1026.35 1025.88 1025.08 1024.32 1023.33 1022.68 1021.72 1021.42 1020.85 1020.16 1019.59 1018.83 1017.75
1026.14 1026.84 1027.46 1028.25 1028.90 1029.64 1030.27 1030.72 1031.03 1031.29 1031.62 1031.70 1031.80 1031.75 1031.63 1031.47 1031.52 1031.21 1030.77 1030.23 1029.89 1029.65 1029.48 1029.14 1028.64 1028.05 1027.69 1027.24 1026.42 1025.63 1025.07 1024.50 1023.87 1023.13 1022.36 1021.65 1021.17 1020.69 1020.30 1019.62 1018.91 1018.09 1017.31
1025.53 1026.08 1026.62 1027.57 1028.47 1029.31 1029.75 1030.19 1030.55 1030.93 1031.39 1031.58 1031.51 1031.60 1031.42 1031.33 1031.16 1030.68 1030.34 1029.80 1029.39 1029.15 1028.92 1028.43 1028.05 1027.51 1026.99 1026.02 1025.01 1024.26 1023.52 1022.72 1022.06 1021.49 1020.95 1020.30 1019.63 1019.08 1018.75 1018.37 1017.74 1017.21 1016.19
1024.57 1024.99 1025.85 1026.93 1027.73 1028.58 1029.28 1029.80 1030.25 1030.71 1031.06 1031.23 1031.14 1031.18 1031.16 1030.95 1030.73 1030.38 1029.90 1029.29 1028.78 1028.40 1028.03 1027.42 1026.97 1026.36 1025.69 1024.82 1024.10 1023.24 1022.09 1021.41 1021.03 1020.35 1019.66 1018.97 1018.49 1018.13 1017.95 1017.67 1017.20 1016.48 1015.77
1024.18 1025.03 1025.94 1026.56 1027.28 1028.13 1028.96 1029.61 1030.21 1030.59 1030.80 1030.92 1030.74 1030.61 1030.62 1030.47 1030.19 1029.79 1029.28 1028.67 1028.16 1027.59 1027.08 1026.54 1026.11 1025.62 1024.70 1023.96 1023.48 1022.96 1022.19 1021.30 1020.71 1019.94 1019.10 1018.37 1017.74 1017.26 1016.89 1016.59 1016.40 1016.02 1015.24
1024.19 1024.82 1025.66 1026.35 1027.07 1027.98 1028.76 1029.46 1029.98 1030.25 1030.37 1030.27 1030.20 1029.91 1029.63 1029.59 1029.44 1028.97 1028.55 1028.01 1027.49 1027.03 1026.50 1025.94 1025.49 1024.97 1024.71 1023.99 1023.39 1022.90 1022.07 1021.29 1020.83 1020.00 1019.15 1018.25 1017.47 1016.79 1016.26 1015.75 1015.44 1015.07 1014.54
1024.11 1024.74 1025.66 1026.45 1027.06 1027.77 1028.49 1028.99 1029.31 1029.52 1029.44 1029.29 1029.23 1028.89 1028.64 1028.68 1028.51 1028.24 1027.87 1027.42 1026.91 1026.42 1025.85 1025.40 1025.49 1025.33 1024.82 1024.13 1023.56 1023.03 1022.25 1021.59 1020.94 1020.12 1019.27 1018.41 1017.68 1017.01 1016.34 1015.67 1015.09 1014.52 1013.81
1023.83 1024.69 1025.63 1026.36 1026.98 1027.67 1028.01 1028.25 1028.35 1028.28 1028.34 1028.42 1028.35 1028.14 1027.99 1027.88 1027.63 1027.38 1027.04 1026.64 1026.36 1025.56 1025.45 1025.94 1025.67 1025.41 1024.87 1024.29 1023.73 1023.06 1022.48 1021.88 1021.36 1020.47 1019.45 1018.64 1017.85 1017.06 1016.20 1015.53 1014.69 1013.99 1013.26
1023.84 1024.62 1025.35 1026.05 1026.73 1026.95 1027.27 1027.29 1027.40 1027.39 1027.49 1027.53 1027.45 1027.44 1027.37 1026.93 1026.61 1026.40 1025.89 1025.61 1025.32 1025.13 1025.35 1025.70 1025.64 1025.29 1024.72 1024.18 1023.74 1023.19 1022.54 1021.91 1021.18 1020.41 1019.63 1018.74 1017.73 1016.80 1015.81 1015.08 1014.38 1013.64 1012.67
1023.79 1024.43 1024.93 1025.43 1025.90 1026.20 1026.41 1026.57 1026.59 1026.43 1026.49 1026.31 1026.00 1025.85 1025.77 1025.83 1025.47 1025.39 1025.25 1024.95 1024.72 1025.07 1025.46 1025.86 1025.76 1025.42 1024.87 1024.32 1023.70 1022.93 1022.35 1021.70 1020.97 1020.33 1019.50 1018.55 1017.58 1016.63 1015.57 1014.65 1013.92 1012.98 1011.88
1023.30 1023.84 1024.42 1024.93 1025.32 1025.67 1025.97 1026.06 1025.90 1025.89 1026.11 1026.02 1025.64 1025.31 1024.88 1024.52 1024.61 1024.86 1024.61 1024.46 1025.10 1025.42 1025.87 1025.95 1025.84 1025.46 1024.88 1024.36 1023.71 1022.94 1022.02 1021.39 1020.87 1019.97 1019.16 1018.22 1017.32 1016.33 1015.40 1014.28 1013.29 1012.28 1010.89
1023.95 1024.31 1024.47 1024.78 1025.14 1025.49 1025.67 1025.77 1025.87 1025.93 1025.82 1025.61 1025.79 1025.66 1025.19 1024.91 1024.68 1024.28 1024.30 1024.33 1025.29 1025.72 1026.03 1025.95 1025.70 1025.33 1024.77 1024.24 1023.61 1022.84 1022.04 1021.24 1020.47 1019.72 1018.87 1017.94 1016.92 1015.93 1014.80 1013.77 1012.73 1011.72 1010.55
1024.53 1024.71 1025.08 1025.29 1025.49 1025.64 1025.73 1025.73 1025.75 1025.67 1025.54 1025.61 1025.80 1025.72 1025.69 1025.21 1024.80 1024.46 1024.38 1024.98 1025.41 1025.61 1025.74 1025.71 1025.42 1025.03 1024.56 1024.11 1023.47 1022.74 1022.05 1021.18 1020.39 1019.53 1018.45 1017.38 1016.28 1015.34 1014.23 1013.37 1012.30 1011.19 1010.13
1024.98 1025.24 1025.42 1025.41 1025.49 1025.65 1025.69 1025.70 1025.59 1025.37 1025.22 1025.19 1025.20 1025.15 1025.36 1025.58 1025.15 1024.77 1024.84 1025.07 1025.22 1025.31 1025.42 1025.31 1024.99 1024.71 1024.29 1023.86 1023.22 1022.50 1021.74 1020.89 1020.04 1019.11 1018.01 1016.97 1015.72 1014.87 1013.92 1012.92 1011.85 1010.63 1009.37
1025.15 1025.21 1025.40 1025.43 1025.41 1025.44 1025.42 1025.31 1025.27 1025.18 1024.97 1024.75 1024.57 1024.72 1024.70 1024.81 1024.37 1024.37 1024.44 1024.56 1024.71 1024.87 1024.92 1024.83 1024.56 1024.23 1023.83 1023.46 1022.92 1022.21 1021.41 1020.57 1019.75 1018.78 1017.70 1016.61 1015.37 1014.32 1013.48 1012.57 1011.46 1010.22 1008.96
1025.49 1025.39 1025.42 1025.47 1025.44 1025.41 1025.35 1025.20 1025.14 1024.98 1024.75 1024.50 1024.25 1024.12 1023.86 1023.58 1023.46 1023.84 1023.99 1024.14 1024.32 1024.52 1024.55 1024.47 1024.08 1023.60 1023.29 1023.02 1022.55 1021.86 1021.10 1020.29 1019.38 1018.42 1017.33 1016.35 1015.08 1014.07 1013.10 1012.10 1011.07 1009.95 1008.78
1025.66 1025.57 1025.46 1025.37 1025.34 1025.35 1025.33 1025.07 1024.82 1024.60 1024.40 1024.17 1023.99 1023.77 1023.63 1023.47 1023.38 1023.40 1023.50 1023.75 1023.95 1024.01 1023.96 1023.91 1023.54 1023.02 1022.68 1022.41 1021.95 1021.39 1020.79 1019.90 1019.10 1018.31 1017.27 1016.04 1014.79 1013.84 1012.91 1011.92 1011.00 1009.98 1008.92
1025.44 1025.35 1025.40 1025.30 1025.03 1024.85 1024.73 1024.57 1024.34 1024.17 1024.05 1023.75 1023.54 1023.33 1023.09 1023.00 1022.95 1022.93 1023.08 1023.27 1023.40 1023.29 1023.20 1023.07 1022.76 1022.35 1022.02 1021.78 1021.14 1020.53 1019.95 1019.26 1018.65 1017.82 1016.85 1015.52 1014.70 1013.82 1012.96 1012.02 1011.14 1010.24 1009.27
1025.17 1025.21 1025.24 1025.06 1024.71 1024.48 1024.26 1024.03 1023.84 1023.59 1023.36 1023.19 1022.96 1022.75 1022.57 1022.51 1022.50 1022.48 1022.53 1022.68 1022.74 1022.60 1022.30 1022.05 1021.72 1021.35 1021.14 1020.81 1020.32 1019.74 1019.05 1018.30 1017.93 1016.88 1015.78 1015.13 1014.48 1013.76 1012.92 1012.15 1011.35 1010.43 1009.62
1024.93 1024.91 1024.74 1024.67 1024.34 1023.99 1023.74 1023.47 1023.17 1022.91 1022.66 1022.41 1022.27 1022.14 1022.08 1022.04 1022.00 1021.97 1021.95 1022.00 1021.94 1021.75 1021.47 1021.12 1020.77 1020.56 1020.28 1019.82 1019.22 1018.68 1018.07 1017.28 1016.43 1015.35 1015.16 1014.61 1014.23 1013.63 1012.99 1012.24 1011.57 1010.88 1010.19
Thickness
5458 5452 5443 5437 5431 5420 5412 5405 5398 5390 5383 5377 5371 5366 5360 5355 5349 5345 5342 5338 5334 5330 5328 5326 5323 5321 5319 5317 5317 5319 5319 5318 5326 5358 5354 5360 5370 5375 5384 5395 5401 5408 5418
5444 5435 5428 5420 5408 5400 5391 5383 5375 5369 5362 5356 5349 5343 5337 5332 5327 5323 5318 5314 5310 5307 5304 5300 5297 5294 5291 5289 5290 5292 5292 5291 5295 5314 5333 5330 5335 5344 5354 5365 5377 5386 5393
5430 5419 5409 5401 5392 5384 5373 5363 5356 5348 5343 5335 5328 5322 5315 5309 5305 5300 5294 5289 5285 5280 5275 5271 5269 5265 5262 5260 5259 5260 5261 5264 5264 5272 5302 5300 5306 5311 5323 5333 5347 5362 5372
5412 5403 5395 5386 5375 5366 5355 5346 5337 5329 5324 5315 5307 5301 5294 5287 5283 5277 5272 5268 5262 5256 5250 5246 5242 5239 5236 5234 5234 5234 5236 5240 5240 5244 5259 5273 5274 5282 5288 5303 5321 5331 5348
5400 5389 5379 5370 5359 5346 5337 5325 5318 5310 5302 5293 5286 5279 5273 5266 5261 5254 5251 5247 5241 5237 5232 5229 5225 5220 5215 5213 5214 5216 5214 5216 5217 5221 5232 5241 5249 5250 5254 5263 5280 5295 5311
5387 5375 5363 5352 5338 5329 5316 5307 5299 5289 5280 5272 5266 5259 5251 5244 5238 5234 5230 5227 5224 5221 5218 5214 5209 5205 5203 5199 5197 5196 5194 5196 5198 5199 5208 5216 5224 5222 5226 5234 5243 5256 5284
5370 5357 5345 5335 5323 5311 5300 5290 5281 5272 5262 5253 5247 5239 5233 5227 5222 5218 5215 5212 5210 5206 5202 5199 5196 5191 5186 5185 5184 5182 5181 5180 5180 5182 5191 5195 5202 5201 5207 5213 5220 5230 5246
5355 5343 5331 5320 5309 5297 5284 5273 5264 5254 5245 5237 5230 5224 5219 5213 5209 5205 5202 5201 5198 5193 5188 5183 5179 5177 5173 5171 5173 5174 5174 5173 5172 5174 5178 5183 5184 5187 5190 5197 5206 5214 5223
5342 5330 5319 5307 5294 5280 5268 5257 5249 5239 5229 5221 5216 5210 5206 5201 5197 5194 5190 5188 5185 5180 5175 5171 5166 5162 5160 5162 5166 5169 5171 5174 5173 5173 5173 5177 5182 5185 5186 5189 5195 5201 5214
5330 5320 5307 5292 5280 5267 5254 5243 5234 5224 5216 5209 5205 5199 5195 5191 5185 5181 5177 5175 5173 5168 5164 5162 5157 5155 5155 5156 5157 5161 5170 5172 5171 5171 5172 5175 5178 5180 5180 5182 5187 5193 5200
5314 5302 5288 5277 5265 5253 5240 5229 5218 5210 5204 5197 5194 5189 5184 5180 5175 5170 5166 5163 5160 5159 5156 5153 5149 5147 5148 5149 5148 5151 5155 5160 5161 5163 5167 5170 5173 5175 5176 5177 5178 5181 5189
5297 5286 5274 5262 5250 5237 5225 5214 5205 5198 5191 5186 5182 5179 5175 5168 5164 5160 5155 5151 5148 5147 5146 5143 5140 5139 5136 5137 5138 5139 5143 5147 5147 5151 5154 5158 5163 5166 5168 5169 5170 5172 5178
5280 5270 5256 5244 5235 5223 5211 5203 5195 5188 5183 5180 5175 5172 5167 5159 5154 5149 5145 5142 5139 5136 5136 5131 5126 5123 5123 5126 5126 5127 5130 5133 5135 5138 5141 5144 5148 5151 5153 5156 5159 5161 5168
5266 5252 5240 5229 5218 5207 5200 5193 5187 5182 5177 5171 5166 5161 5156 5151 5146 5141 5137 5133 5129 5128 5125 5116 5112 5110 5110 5113 5115 5116 5117 5119 5119 5122 5127 5129 5132 5135 5139 5141 5147 5150 5156
5248 5237 5226 5215 5204 5197 5189 5184 5178 5173 5167 5161 5155 5148 5143 5142 5137 5132 5129 5125 5122 5118 5112 5104 5099 5098 5100 5102 5102 5103 5104 5105 5107 5109 5111 5114 5118 5121 5125 5127 5130 5134 5141
5233 5223 5214 5205 5196 5188 5182 5175 5169 5164 5158 5153 5148 5144 5140 5133 5128 5123 5119 5116 5113 5105 5097 5089 5085 5085 5088 5090 5092 5093 5094 5095 5096 5096 5098 5100 5103 5105 5109 5111 5115 5121 5129
5223 5213 5203 5193 5186 5179 5170 5164 5160 5153 5145 5140 5136 5132 5129 5125 5119 5113 5110 5106 5098 5091 5082 5076 5074 5075 5078 5079 5081 5083 5086 5086 5085 5086 5086 5087 5089 5092 5095 5102 5108 5114 5125
5201 5193 5187 5180 5173 5165 5157 5151 5143 5137 5133 5128 5119 5114 5111 5108 5104 5103 5099 5095 5085 5077 5069 5065 5065 5067 5069 5070 5071 5073 5075 5076 5076 5076 5076 5077 5081 5086 5092 5097 5103 5107 5113
5182 5176 5168 5161 5154 5147 5140 5133 5127 5121 5117 5111 5101 5094 5090 5090 5089 5088 5086 5079 5072 5066 5060 5057 5058 5059 5061 5061 5062 5064 5065 5067 5067 5068 5070 5074 5078 5082 5088 5091 5096 5099 5102
5164 5156 5149 5144 5137 5130 5122 5116 5110 5105 5100 5093 5086 5080 5074 5070 5071 5071 5068 5065 5062 5059 5054 5053 5053 5053 5054 5054 5056 5057 5059 5060 5061 5062 5066 5069 5074 5077 5081 5084 5088 5093 5096
5148 5141 5133 5128 5121 5113 5106 5099 5092 5085 5079 5074 5070 5065 5062 5059 5061 5060 5058 5056 5054 5050 5048 5048 5047 5048 5049 5049 5050 5051 5053 5055 5056 5058 5062 5065 5069 5073 5075 5078 5082 5085 5089
5128 5123 5116 5109 5101 5093 5086 5077 5068 5060 5054 5051 5049 5048 5048 5050 5052 5050 5049 5046 5044 5042 5042 5042 5043 5045 5046 5045 5045 5047 5048 5050 5052 5055 5058 5060 5065 5067 5070 5074 5077 5080 5083
5109 5103 5097 5090 5081 5072 5061 5052 5041 5035 5031 5028 5027 5028 5029 5031 5033 5036 5039 5038 5036 5036 5037 5038 5040 5042 5043 5042 5043 5043 5043 5045 5047 5049 5052 5056 5061 5064 5066 5068 5071 5072 5076
5092 5086 5078 5070 5062 5052 5040 5029 5021 5012 5005 5002 5001 5006 5012 5018 5021 5024 5027 5028 5030 5032 5034 5036 5039 5040 5040 5040 5041 5041 5042 5043 5043 5045 5048 5054 5055 5058 5060 5062 5064 5066 5069
5075 5068 5059 5051 5042 5031 5020 5010 5000 4990 4984 4981 4981 4989 4997 5005 5010 5014 5018 5022 5026 5029 5033 5036 5038 5040 5039 5039 5040 5040 5041 5043 5041 5044 5047 5049 5050 5052 5054 5056 5058 5061 5063
5059 5051 5042 5032 5023 5014 5004 4994 4985 4977 4971 4972 4974 4980 4989 4997 5002 5008 5014 5019 5023 5027 5032 5036 5038 5038 5038 5039 5040 5040 5041 5042 5043 5046 5045 5045 5045 5047 5049 5051 5052 5054 5056